Hourly Data Report for October 26, 2016

All times are specified in Local Standard Time (LST). Add 1 hour to adjust for Daylight Saving Time where and when it is observed.

GRISE FIORD CLIMATE
NUNAVUT

76°25'22.040" N
82°54'08.020" W
44.50 m
2402351
71971
NGC

Download Data

Hourly Data (October 2016)
Hourly Data Report for October 26, 2016
Temp Definition
°C
Dew Point Temp Definition
°C
Rel Hum Definition
%
Wind Dir Definition
10's deg

Wind Spd Definition
km/h
Visibility Definition
km
Stn Press Definition
kPa
Hmdx Definition


Wind Chill Definition


Weather Definition


TIME
00:00 -16.5 -23.1 56 4 12   100.50   -24 LegendNANA
01:00 -17.9 -22.5 67 12 10   100.49   -25 LegendNANA
02:00 -18.3 -22.8 68 6 3   100.49   -21 LegendNANA
03:00 -17.0 -21.3 69 20 2   100.50   -19 LegendNANA
04:00 -17.2 -21.3 70 32 2   100.52   -19 LegendNANA
05:00 -18.0 -20.7 79 8 5   100.52   -22 LegendNANA
06:00 -18.8 -22.6 72 7 2   100.52   -20 LegendNANA
07:00 -19.1 -24.3 63 5 11   100.51   -27 LegendNANA
08:00 -19.4 -23.1 72 20 3   100.54   -22 LegendNANA
09:00 -17.3 -21.7 69 7 6   100.52   -22 LegendNANA
10:00 -21.0 -24.5 74 12 7   100.54   -27 LegendNANA
11:00 -19.8 -22.5 79 14 5   100.56   -24 LegendNANA
12:00 -19.1 -22.1 77 12 5   100.59   -23 LegendNANA
13:00 -20.6 -23.8 75 11 4   100.61   -24 LegendNANA
14:00 -19.9 -22.8 78 13 7   100.66   -26 LegendNANA
15:00 -19.1 -22.1 77 15 3   100.68   -22 LegendNANA
16:00 -18.6 -21.8 76 8 8   100.73   -25 LegendNANA
17:00 -19.0 -23.0 71 8 8   100.79   -25 LegendNANA
18:00 -18.9 -21.3 82 9 4   100.82   -22 LegendNANA
19:00 -21.7 -25.0 75 11 7   100.84   -28 LegendNANA
20:00 -20.1 -23.5 74 10 9   100.85   -27 LegendNANA
21:00 -22.2 -25.8 72 12 8   100.89   -29 LegendNANA
22:00 -20.8 -24.2 74 12 4   100.93   -24 LegendNANA
23:00 -21.8 -24.8 76 11 5   100.97   -26 LegendNANA

Notes on Data Quality.

Legend

  • E = Estimated
  • M = Missing
  • NA = Not Available
  • ‡ = Partner data that is not subject to review by the National Climate Archives
Date modified: